Regional Weather Roundup
Issued by NWS

Home | Current Version | Previous Version | Graphics & Text | Print | Product List | Glossary On
Versions: 1 2 3 4 5 6 7 8 9 10 11 12 13 14 15 16 17 18 19 20 21 22 23 24 25 26 27
000
ASUS45 KCYS 300910
RWRWY

WYOMING REGIONAL WEATHER ROUNDUP
NATIONAL WEATHER SERVICE CHEYENNE WY
300 AM MDT THU OCT 30 2014

NOTE:  "FAIR" INDICATES FEW OR NO CLOUDS BELOW 12,000 FEET
WITH NO SIGNIFICANT WEATHER AND/OR OBSTRUCTIONS TO VISIBILITY.

WYZ001-301000-
YELLOWSTONE NATIONAL PARK

CITY           SKY/WX    TMP DP  RH WIND       PRES   REMARKS
LK YELLOWSTONE   N/A     24  22  91 NW3       30.36
W YELLOWSTONE  NOT AVBL

$$
WYZ002>013-054>058-071-098>099-301000-
NORTHERN WYOMING

CITY           SKY/WX    TMP DP  RH WIND       PRES   REMARKS
JACKSON        CLEAR     27  27 100 NE3       30.34R
CODY           CLEAR     34  21  60 S5        30.27  WCI  30
GREYBULL       CLEAR     34  22  61 SE5       30.26R WCI  30
WORLAND        CLEAR     31  20  63 S7        30.26R WCI  24
SHERIDAN       CLEAR     40  27  59 W3        30.25R
BUFFALO        CLEAR     40  25  55 W8        30.27R WCI  34
GILLETTE       PTCLDY    38  25  59 W12       30.23R WCI  30
HULETT         FAIR      37  30  75 S7        30.22  WCI  32
NEWCASTLE      FAIR      34  28  80 N9        30.23  WCI  26

$$
WYZ014>020-022>026-101>103-301000-
CENTRAL WYOMING

CITY           SKY/WX    TMP DP  RH WIND       PRES   REMARKS
BIG PINEY      MOCLDY    24  19  81 CALM      30.37R
PINEDALE       MOSUNNY   21  21 100 NW5       30.37  WCI  15
DUBOIS         FAIR      32  27  80 NW12      30.32S WCI  23
LANDER         CLEAR     38  22  52 SW5       30.28S WCI  34
RIVERTON       CLEAR     38  26  62 W10       30.29R WCI  31
CASPER         CLEAR     21  15  78 CALM      30.30R
DOUGLAS        CLEAR     33  21  61 NW8       30.30R WCI  26

$$
WYZ021-027>030-104>119-301000-
SOUTHERN WYOMING

CITY           SKY/WX    TMP DP  RH WIND       PRES   REMARKS
EVANSTON       PTCLDY    39  24  55 SE8       30.36S WCI  33
KEMMERER       MOSUNNY   32  28  86 CALM      30.38R
FORT BRIDGER   FAIR      40  26  55 W6        30.39S
ROCK SPRINGS   PTCLDY    40  29  64 CALM      30.36R
RAWLINS        PTCLDY    37  24  59 SW9       30.34S WCI  30
SARATOGA       PTSUNNY   37  27  65 SW12      30.35S WCI  30
LARAMIE        CLOUDY    39  25  57 N6        30.32S WCI  35
CHEYENNE       CLOUDY    42  24  49 NW9       30.29R
TORRINGTON     CLEAR     34  23  64 W8        30.24R WCI  27
PINE BLUFFS    FAIR      36  27  69 NW10      30.27R WCI  28

$$



USA.gov is the U.S. government's official web portal to all federal, state and local government web resources and services.